CUTE-1 (CO-55) (27844 NORAD) Tracking and Keplerian Element Data

This shows tracking and keplerian element data for the satellite.

Feedback or suggestion? Click here.




ElementValue
Catalog27844
NameCUTE-1 (CO-55)
Epoch Orbit83667
Epoch Day228.9614355
Epoch Year2019
RAAN236.2889
Inclination98.6842
Eccentricity0.0009065
Argument of Perigee213.9503
Mean Anonmoly146.1096
Mean Motion14.22189696
Decay Rate2.5E-07
L11 27844U 03031E 19228.96143550 .00000025 00000-0 30879-4 0 9995
L22 27844 98.6842 236.2889 0009065 213.9503 146.1096 14.22189696836670

Live tracking and technical data element details for CUTE-1 (CO-55) (NORAD 27844). CUTE-1 (CO-55) can be tracked NOW for your location showing map with azimuth and elevation plus other details from your city location.

Track the satellite on the map from your city or location and see movement details for azimuth, elevation, latitude, longitude, range, height, and movement on the map or in text.







IsCatalogInMostPopularTable: catalog: 27844, numindb: 168
Update: records affected: 1



GetName: 27844 CUTE-1 (CO-55)

Hit Count: updated at: Tue, 20 Aug 2019 18:08:59 GMT